{"data":{"norad_id":66792,"epoch":"2026-09-20T21:07:33.861792Z","epoch_age_seconds":53616,"freshness":"FRESH","line1":"1 66792U 25278B   26263.88025303  .00010946  00000+0  40662-3 0  9992","line2":"2 66792  42.9964  91.8034 0001496  54.1612 305.9378 15.27586253 45064","mean_motion":15.27586253,"eccentricity":0.0001496,"inclination_deg":42.9964,"raan_deg":91.8034,"arg_perigee_deg":54.1612,"mean_anomaly_deg":305.9378,"bstar":0.00040662,"rev_number":4506,"period_min":94.266362843473,"perigee_km":482.00394173311,"apogee_km":484.05680301093,"semimajor_km":6861.167372372,"source":"CELESTRAK","updated_at":"2026-09-21T09:00:36.013338Z"}}